| time (UTC) | temp F | wind direction | speed MPH | gust MPH | rain 1hr in | rain 24hr in | rain mn in | humidity % | barometer mb |
| 20260831235731 | 88 | 292 | 0.0 | 5.0 | 0.00 | 0.58 | 0.58 | 49 | 1013.6 |
| 20260831235230 | 88 | 333 | 4.0 | 5.0 | 0.00 | 0.58 | 0.58 | 47 | 1013.4 |
| 20260831234730 | 88 | 198 | 2.0 | 2.0 | 0.00 | 0.58 | 0.58 | 45 | 1013.4 |
| 20260831233730 | 88 | 266 | 1.0 | 3.0 | 0.00 | 0.58 | 0.58 | 44 | 1013.3 |
| 20260831232730 | 87 | 253 | 0.0 | 4.0 | 0.00 | 0.58 | 0.58 | 43 | 1013.3 |
| 20260831232229 | 87 | 282 | 0.0 | 4.0 | 0.00 | 0.58 | 0.58 | 43 | 1013.4 |
| 20260831231730 | 87 | 325 | 2.0 | 4.0 | 0.00 | 0.58 | 0.58 | 47 | 1013.4 |
| 20260831230729 | 87 | 284 | 2.0 | 3.0 | 0.00 | 0.58 | 0.58 | 45 | 1013.9 |
| 20260831230229 | 87 | 18 | 0.0 | 2.0 | 0.00 | 0.58 | 0.58 | 46 | 1013.8 |
| 20260831225729 | 87 | 202 | 0.0 | 4.0 | 0.00 | 0.58 | 0.58 | 44 | 1014.0 |
| 20260831225228 | 87 | 286 | 2.0 | 4.0 | 0.00 | 0.58 | 0.58 | 45 | 1014.0 |
| 20260831223728 | 86 | 295 | 3.0 | 5.0 | 0.00 | 0.58 | 0.58 | 48 | 1014.3 |
| 20260831223228 | 87 | 298 | 1.0 | 2.0 | 0.00 | 0.58 | 0.58 | 49 | 1014.2 |
| 20260831222728 | 86 | 298 | 0.0 | 3.0 | 0.00 | 0.58 | 0.58 | 46 | 1014.4 |
| 20260831222228 | 86 | 238 | 0.0 | 4.0 | 0.00 | 0.58 | 0.58 | 47 | 1014.4 |
| 20260831221727 | 86 | 263 | 0.0 | 4.0 | 0.00 | 0.58 | 0.58 | 48 | 1014.5 |
| 20260831221227 | 86 | 332 | 0.0 | 3.0 | 0.00 | 0.58 | 0.58 | 49 | 1014.6 |
| 20260831220727 | 86 | 113 | 0.0 | 6.0 | 0.00 | 0.58 | 0.58 | 47 | 1014.9 |
| 20260831220227 | 86 | 206 | 0.0 | 6.0 | 0.00 | 0.58 | 0.58 | 46 | 1015.1 |
| 20260831215227 | 86 | 229 | 0.0 | 5.0 | 0.00 | 0.58 | 0.58 | 46 | 1015.2 |
| 20260831214727 | 85 | 291 | 0.0 | 6.0 | 0.00 | 0.58 | 0.58 | 49 | 1015.5 |
| 20260831213726 | 84 | 219 | 1.0 | 8.0 | 0.00 | 0.58 | 0.58 | 50 | 1015.7 |
| 20260831213226 | 85 | 190 | 4.0 | 8.0 | 0.00 | 0.58 | 0.58 | 50 | 1015.9 |
| 20260831212756 | 85 | 212 | 4.0 | 7.0 | 0.00 | 0.58 | 0.58 | 53 | 1016.0 |
| 20260831212226 | 85 | 136 | 2.0 | 10.0 | 0.00 | 0.58 | 0.58 | 55 | 1016.1 |
| 20260831211726 | 84 | 151 | 4.0 | 10.0 | 0.00 | 0.58 | 0.58 | 53 | 1016.0 |
| 20260831211226 | 84 | 180 | 5.0 | 7.0 | 0.00 | 0.58 | 0.58 | 55 | 1016.1 |
| 20260831205755 | 83 | 174 | 4.0 | 8.0 | 0.00 | 0.58 | 0.58 | 55 | 1016.0 |
| 20260831205225 | 83 | 84 | 1.0 | 6.0 | 0.00 | 0.58 | 0.58 | 54 | 1016.0 |
| 20260831204225 | 81 | 111 | 3.0 | 8.0 | 0.00 | 0.58 | 0.58 | 62 | 1016.0 |
| 20260831203724 | 81 | 148 | 3.0 | 8.0 | 0.00 | 0.58 | 0.58 | 60 | 1016.0 |
| 20260831203224 | 81 | 91 | 2.0 | 7.0 | 0.00 | 0.58 | 0.58 | 65 | 1016.1 |
| 20260831202755 | 80 | 96 | 4.0 | 5.0 | 0.00 | 0.58 | 0.58 | 65 | 1016.0 |
| 20260831202254 | 79 | 86 | 0.0 | 5.0 | 0.00 | 0.58 | 0.58 | 69 | 1016.0 |
| 20260831201754 | 78 | 107 | 4.0 | 6.0 | 0.00 | 0.58 | 0.58 | 74 | 1015.9 |
| 20260831201254 | 77 | 97 | 2.0 | 7.0 | 0.00 | 0.58 | 0.58 | 74 | 1016.0 |
| 20260831200754 | 76 | 134 | 3.0 | 7.0 | 0.00 | 0.58 | 0.58 | 77 | 1015.9 |
| 20260831200253 | 76 | 94 | 4.0 | 7.0 | 0.00 | 0.58 | 0.58 | 81 | 1015.9 |
| 20260831195753 | 75 | 127 | 2.0 | 7.0 | 0.00 | 0.58 | 0.58 | 83 | 1016.0 |
| 20260831195254 | 75 | 170 | 4.0 | 6.0 | 0.00 | 0.58 | 0.58 | 85 | 1016.7 |
| 20260831194253 | 74 | 127 | 4.0 | 6.0 | 0.00 | 0.58 | 0.58 | 85 | 1016.3 |
| 20260831192752 | 74 | 113 | 5.0 | 7.0 | 0.00 | 0.58 | 0.58 | 85 | 1016.3 |
| 20260831192253 | 74 | 114 | 1.0 | 9.0 | 0.00 | 0.58 | 0.58 | 85 | 1016.5 |
| 20260831191252 | 74 | 107 | 3.0 | 12.0 | 0.00 | 0.58 | 0.58 | 85 | 1016.7 |
| 20260831190752 | 74 | 151 | 1.0 | 12.0 | 0.00 | 0.58 | 0.58 | 84 | 1016.6 |
| 20260831190252 | 75 | 141 | 3.0 | 11.0 | 0.00 | 0.58 | 0.58 | 83 | 1016.7 |
| 20260831185752 | 75 | 111 | 4.0 | 12.0 | 0.00 | 0.58 | 0.58 | 83 | 1016.7 |
| 20260831185251 | 75 | 115 | 5.0 | 12.0 | 0.00 | 0.58 | 0.58 | 83 | 1016.6 |
| 20260831184751 | 75 | 136 | 4.0 | 12.0 | 0.00 | 0.58 | 0.58 | 82 | 1016.6 |
| 20260831184252 | 74 | 152 | 2.0 | 11.0 | 0.00 | 0.58 | 0.58 | 82 | 1016.7 |
| 20260831183751 | 74 | 141 | 4.0 | 8.0 | 0.00 | 0.58 | 0.58 | 83 | 1016.9 |
| 20260831182751 | 74 | 106 | 4.0 | 12.0 | 0.00 | 0.58 | 0.58 | 84 | 1016.9 |
| 20260831182251 | 74 | 129 | 6.0 | 10.0 | 0.00 | 0.58 | 0.58 | 83 | 1017.0 |
| 20260831181751 | 74 | 107 | 7.0 | 13.0 | 0.00 | 0.58 | 0.58 | 83 | 1017.2 |
| 20260831181250 | 74 | 116 | 8.0 | 13.0 | 0.00 | 0.58 | 0.58 | 82 | 1017.1 |
| 20260831180750 | 74 | 134 | 7.0 | 9.0 | 0.00 | 0.58 | 0.58 | 81 | 1017.0 |
| 20260831175750 | 74 | 131 | 1.0 | 6.0 | 0.01 | 0.58 | 0.58 | 84 | 1017.2 |
| 20260831175250 | 74 | 153 | 3.0 | 9.0 | 0.02 | 0.58 | 0.58 | 83 | 1017.3 |
| 20260831174749 | 74 | 113 | 3.0 | 9.0 | 0.02 | 0.58 | 0.58 | 84 | 1017.5 |
| 20260831174249 | 74 | 100 | 6.0 | 7.0 | 0.03 | 0.58 | 0.58 | 86 | 1017.4 |
| 20260831173750 | 74 | 115 | 6.0 | 7.0 | 0.03 | 0.58 | 0.58 | 88 | 1017.3 |
| 20260831171749 | 73 | 134 | 0.0 | 3.0 | 0.08 | 0.58 | 0.58 | 87 | 1017.6 |
| 20260831171248 | 73 | 155 | 0.0 | 3.0 | 0.09 | 0.58 | 0.58 | 87 | 1017.5 |
| 20260831170748 | 73 | 122 | 2.0 | 6.0 | 0.10 | 0.58 | 0.58 | 86 | 1017.4 |
| 20260831165748 | 73 | 172 | 3.0 | 8.0 | 0.11 | 0.57 | 0.57 | 83 | 1016.8 |
| 20260831165248 | 73 | 129 | 3.0 | 5.0 | 0.12 | 0.56 | 0.56 | 86 | 1016.7 |
| 20260831164748 | 73 | 74 | 3.0 | 4.0 | 0.13 | 0.56 | 0.56 | 87 | 1016.5 |
| 20260831164248 | 72 | 86 | 0.0 | 2.0 | 0.12 | 0.55 | 0.55 | 89 | 1016.6 |
| 20260831163748 | 72 | 38 | 0.0 | 1.0 | 0.13 | 0.55 | 0.55 | 89 | 1016.8 |
| 20260831163247 | 72 | 17 | 0.0 | 2.0 | 0.12 | 0.54 | 0.54 | 88 | 1016.9 |
| 20260831162747 | 72 | 16 | 0.0 | 3.0 | 0.11 | 0.53 | 0.53 | 88 | 1017.0 |
| 20260831162247 | 72 | 7 | 0.0 | 3.0 | 0.10 | 0.52 | 0.52 | 87 | 1017.0 |
| 20260831161747 | 73 | 333 | 2.0 | 10.0 | 0.08 | 0.50 | 0.50 | 86 | 1017.1 |
| 20260831160747 | 73 | 349 | 3.0 | 9.0 | 0.06 | 0.48 | 0.48 | 86 | 1016.9 |
| 20260831160246 | 73 | 345 | 3.0 | 9.0 | 0.05 | 0.47 | 0.47 | 86 | 1017.0 |
| 20260831155246 | 73 | 357 | 3.0 | 8.0 | 0.02 | 0.44 | 0.44 | 86 | 1017.4 |
| 20260831154746 | 74 | 353 | 4.0 | 8.0 | 0.01 | 0.43 | 0.43 | 84 | 1017.3 |
| 20260831154246 | 74 | 38 | 5.0 | 7.0 | 0.01 | 0.43 | 0.43 | 83 | 1017.3 |
| 20260831153746 | 75 | 341 | 1.0 | 12.0 | 0.00 | 0.42 | 0.42 | 81 | 1017.1 |
| 20260831153246 | 76 | 315 | 4.0 | 13.0 | 0.00 | 0.42 | 0.42 | 78 | 1017.3 |
| 20260831152745 | 76 | 62 | 2.0 | 13.0 | 0.00 | 0.42 | 0.42 | 75 | 1017.3 |
| 20260831152245 | 75 | 56 | 3.0 | 12.0 | 0.00 | 0.42 | 0.42 | 77 | 1017.3 |
| 20260831151245 | 75 | 166 | 0.0 | 5.0 | 0.00 | 0.42 | 0.42 | 81 | 1017.4 |
| 20260831150745 | 75 | 166 | 0.0 | 6.0 | 0.00 | 0.42 | 0.42 | 80 | 1017.3 |
| 20260831150245 | 75 | 168 | 3.0 | 8.0 | 0.00 | 0.42 | 0.42 | 79 | 1017.0 |
| 20260831145745 | 75 | 137 | 2.0 | 8.0 | 0.00 | 0.42 | 0.42 | 78 | 1016.8 |
| 20260831141244 | 73 | 103 | 5.0 | 10.0 | 0.03 | 0.42 | 0.42 | 84 | 1015.7 |
| 20260831140743 | 73 | 40 | 6.0 | 11.0 | 0.03 | 0.42 | 0.42 | 84 | 1015.6 |
| 20260831140243 | 73 | 114 | 8.0 | 11.0 | 0.03 | 0.42 | 0.42 | 84 | 1015.4 |
| 20260831135743 | 73 | 103 | 6.0 | 15.0 | 0.04 | 0.42 | 0.42 | 85 | 1015.5 |
| 20260831135243 | 73 | 92 | 3.0 | 15.0 | 0.04 | 0.42 | 0.42 | 84 | 1015.6 |
| 20260831134742 | 73 | 95 | 7.0 | 13.0 | 0.03 | 0.41 | 0.41 | 84 | 1015.5 |
| 20260831134242 | 73 | 94 | 7.0 | 14.0 | 0.03 | 0.41 | 0.41 | 84 | 1015.7 |
| 20260831133742 | 74 | 129 | 5.0 | 14.0 | 0.03 | 0.41 | 0.41 | 84 | 1015.8 |
| 20260831133242 | 74 | 115 | 6.0 | 14.0 | 0.02 | 0.40 | 0.40 | 85 | 1015.8 |
| 20260831132742 | 74 | 113 | 6.0 | 11.0 | 0.02 | 0.40 | 0.40 | 86 | 1015.9 |
| 20260831131742 | 74 | 136 | 3.0 | 15.0 | 0.02 | 0.40 | 0.40 | 85 | 1015.7 |
| 20260831131241 | 74 | 149 | 6.0 | 15.0 | 0.01 | 0.39 | 0.39 | 84 | 1015.6 |
| 20260831130241 | 75 | 121 | 6.0 | 12.0 | 0.01 | 0.39 | 0.39 | 84 | 1015.5 |
| 20260831125742 | 75 | 101 | 6.0 | 16.0 | 0.00 | 0.38 | 0.38 | 83 | 1015.6 |
| 20260831125241 | 75 | 114 | 8.0 | 16.0 | 0.00 | 0.38 | 0.38 | 82 | 1015.7 |
| 20260831124241 | 76 | 140 | 5.0 | 12.0 | 0.00 | 0.38 | 0.38 | 78 | 1015.7 |
| 20260831123741 | 76 | 130 | 4.0 | 12.0 | 0.00 | 0.38 | 0.38 | 77 | 1015.4 |
| 20260831123240 | 76 | 174 | 2.0 | 6.0 | 0.00 | 0.38 | 0.38 | 80 | 1015.5 |
| 20260831122240 | 75 | 120 | 0.0 | 2.0 | 0.00 | 0.38 | 0.38 | 82 | 1015.0 |
| 20260831121740 | 75 | 186 | 0.0 | 1.0 | 0.00 | 0.38 | 0.38 | 84 | 1014.6 |
| 20260831121240 | 75 | 243 | 0.0 | 1.0 | 0.01 | 0.38 | 0.38 | 84 | 1014.4 |
| 20260831120740 | 75 | 243 | 0.0 | 3.0 | 0.01 | 0.38 | 0.38 | 83 | 1013.9 |
| 20260831120240 | 75 | 277 | 0.0 | 4.0 | 0.01 | 0.38 | 0.38 | 83 | 1013.6 |
| 20260831115239 | 76 | 283 | 2.0 | 2.0 | 0.01 | 0.38 | 0.38 | 84 | 1013.5 |
| 20260831114739 | 76 | 278 | 0.0 | 2.0 | 0.01 | 0.38 | 0.38 | 84 | 1013.2 |
| 20260831114239 | 76 | 278 | 0.0 | 2.0 | 0.01 | 0.38 | 0.38 | 83 | 1013.1 |
| 20260831113739 | 76 | 271 | 0.0 | 2.0 | 0.01 | 0.38 | 0.38 | 82 | 1012.9 |
| 20260831113239 | 76 | 272 | 0.0 | 2.0 | 0.01 | 0.38 | 0.38 | 80 | 1012.8 |
| 20260831111739 | 76 | 25 | 2.0 | 3.0 | 0.01 | 0.38 | 0.38 | 80 | 1012.7 |
| 20260831111238 | 76 | 82 | 0.0 | 2.0 | 0.00 | 0.37 | 0.37 | 78 | 1012.6 |
| 20260831110738 | 76 | 81 | 1.0 | 4.0 | 0.00 | 0.37 | 0.37 | 77 | 1012.6 |
| 20260831110238 | 76 | 75 | 2.0 | 6.0 | 0.00 | 0.37 | 0.37 | 76 | 1012.7 |
| 20260831105738 | 76 | 124 | 1.0 | 6.0 | 0.00 | 0.37 | 0.37 | 75 | 1012.7 |
| 20260831105238 | 76 | 124 | 3.0 | 7.0 | 0.00 | 0.37 | 0.37 | 75 | 1012.8 |
| 20260831104737 | 76 | 98 | 3.0 | 7.0 | 0.01 | 0.37 | 0.37 | 76 | 1012.7 |
| 20260831104237 | 75 | 146 | 2.0 | 7.0 | 0.01 | 0.37 | 0.37 | 79 | 1012.3 |
| 20260831102737 | 75 | 115 | 4.0 | 6.0 | 0.01 | 0.37 | 0.37 | 83 | 1012.3 |
| 20260831102237 | 75 | 122 | 3.0 | 5.0 | 0.02 | 0.37 | 0.37 | 86 | 1012.4 |
| 20260831101737 | 75 | 127 | 1.0 | 3.0 | 0.02 | 0.37 | 0.37 | 87 | 1012.5 |
| 20260831101237 | 75 | 121 | 0.0 | 1.0 | 0.02 | 0.37 | 0.37 | 88 | 1012.5 |
| 20260831100737 | 75 | 162 | 0.0 | 1.0 | 0.02 | 0.37 | 0.37 | 88 | 1012.5 |
| 20260831095736 | 75 | 174 | 0.0 | 1.0 | 0.04 | 0.37 | 0.37 | 87 | 1012.4 |
| 20260831095236 | 75 | 78 | 0.0 | 4.0 | 0.04 | 0.37 | 0.37 | 87 | 1012.3 |
| 20260831094736 | 75 | 60 | 0.0 | 4.0 | 0.03 | 0.36 | 0.36 | 85 | 1012.0 |
| 20260831093735 | 74 | 105 | 0.0 | 1.0 | 0.03 | 0.36 | 0.36 | 88 | 1012.5 |
| 20260831093236 | 74 | 115 | 0.0 | 2.0 | 0.05 | 0.36 | 0.36 | 89 | 1012.8 |
| 20260831092735 | 74 | 94 | 0.0 | 2.0 | 0.05 | 0.36 | 0.36 | 89 | 1012.7 |
| 20260831092235 | 73 | 148 | 0.0 | 2.0 | 0.06 | 0.35 | 0.35 | 89 | 1012.6 |
| 20260831091735 | 73 | 33 | 0.0 | 2.0 | 0.16 | 0.35 | 0.35 | 88 | 1012.3 |
| 20260831091235 | 73 | 52 | 1.0 | 2.0 | 0.30 | 0.35 | 0.35 | 88 | 1012.2 |
| 20260831090734 | 73 | 80 | 0.0 | 1.0 | 0.35 | 0.35 | 0.35 | 88 | 1012.2 |
| 20260831085234 | 73 | 254 | 0.0 | 9.0 | 0.33 | 0.33 | 0.33 | 83 | 1012.4 |
| 20260831084234 | 73 | 27 | 7.0 | 18.0 | 0.33 | 0.33 | 0.33 | 76 | 1012.1 |
| 20260831083734 | 73 | 62 | 7.0 | 18.0 | 0.33 | 0.33 | 0.33 | 78 | 1012.4 |
| 20260831083233 | 73 | 43 | 8.0 | 16.0 | 0.31 | 0.31 | 0.31 | 79 | 1012.8 |
| 20260831082734 | 72 | 63 | 5.0 | 20.0 | 0.31 | 0.31 | 0.31 | 82 | 1012.7 |
| 20260831082234 | 73 | 338 | 8.0 | 20.0 | 0.29 | 0.29 | 0.29 | 74 | 1012.7 |
| 20260831081733 | 75 | 330 | 8.0 | 15.0 | 0.19 | 0.19 | 0.19 | 74 | 1013.3 |
| 20260831081233 | 81 | 304 | 10.0 | 17.0 | 0.05 | 0.05 | 0.05 | 61 | 1014.6 |
| 20260831080233 | 83 | 15 | 9.0 | 16.0 | 0.00 | 0.00 | 0.00 | 53 | 1012.6 |
| 20260831075733 | 83 | 41 | 6.0 | 19.0 | 0.00 | 0.00 | 0.00 | 53 | 1012.5 |
| 20260831075233 | 83 | 295 | 7.0 | 19.0 | 0.00 | 0.00 | 0.00 | 54 | 1012.3 |
| 20260831074732 | 83 | 332 | 7.0 | 19.0 | 0.00 | 0.00 | 0.00 | 54 | 1012.4 |
| 20260831074232 | 84 | 58 | 13.0 | 19.0 | 0.00 | 0.00 | 0.00 | 53 | 1012.4 |
| 20260831073732 | 84 | 44 | 7.0 | 19.0 | 0.00 | 0.00 | 0.00 | 53 | 1012.2 |
| 20260831073232 | 84 | 360 | 6.0 | 20.0 | 0.00 | 0.00 | 0.00 | 53 | 1012.5 |
| 20260831072231 | 84 | 13 | 6.0 | 20.0 | 0.00 | 0.00 | 0.00 | 54 | 1012.7 |
| 20260831071732 | 84 | 44 | 12.0 | 20.0 | 0.00 | 0.00 | 0.00 | 54 | 1012.8 |
| 20260831071231 | 84 | 27 | 9.0 | 20.0 | 0.00 | 0.00 | 0.00 | 54 | 1013.1 |
| 20260831070731 | 84 | 10 | 12.0 | 19.0 | 0.00 | 0.00 | 0.00 | 55 | 1013.3 |
| 20260831070231 | 84 | 43 | 9.0 | 19.0 | 0.00 | 0.00 | 0.00 | 55 | 1013.1 |
| 20260831065731 | 84 | 13 | 8.0 | 17.0 | 0.00 | 0.00 | 0.00 | 55 | 1013.2 |
| 20260831064730 | 85 | 299 | 6.0 | 15.0 | 0.00 | 0.00 | 0.00 | 52 | 1013.1 |
| 20260831064230 | 85 | 323 | 3.0 | 15.0 | 0.00 | 0.00 | 0.00 | 51 | 1013.1 |
| 20260831063230 | 86 | 320 | 10.0 | 15.0 | 0.00 | 0.00 | 0.00 | 50 | 1013.2 |
| 20260831062230 | 87 | 332 | 4.0 | 11.0 | 0.00 | 0.00 | 0.00 | 51 | 1013.0 |
| 20260831061729 | 88 | 333 | 9.0 | 10.0 | 0.00 | 0.00 | 0.00 | 50 | 1012.8 |
| 20260831061229 | 88 | 34 | 6.0 | 7.0 | 0.00 | 0.00 | 0.00 | 49 | 1012.6 |
| 20260831060730 | 88 | 9 | 2.0 | 4.0 | 0.00 | 0.00 | 0.00 | 49 | 1012.2 |
| 20260831055229 | 87 | 354 | 1.0 | 5.0 | 0.00 | 0.00 | 0.00 | 50 | 1012.2 |
| 20260831054729 | 87 | 23 | 1.0 | 5.0 | 0.00 | 0.00 | 0.00 | 51 | 1012.2 |
| 20260831054229 | 87 | 8 | 2.0 | 4.0 | 0.00 | 0.00 | 0.00 | 51 | 1012.3 |
| 20260831053729 | 87 | 62 | 1.0 | 2.0 | 0.00 | 0.00 | 0.00 | 51 | 1012.5 |
| 20260831053229 | 87 | 327 | 1.0 | 3.0 | 0.00 | 0.00 | 0.00 | 51 | 1012.5 |
| 20260831052728 | 87 | 320 | 2.0 | 3.0 | 0.00 | 0.00 | 0.00 | 51 | 1012.6 |
| 20260831052228 | 87 | 13 | 0.0 | 4.0 | 0.00 | 0.00 | 0.00 | 51 | 1012.7 |
| 20260831051728 | 87 | 13 | 0.0 | 5.0 | 0.00 | 0.00 | 0.00 | 51 | 1012.8 |
| 20260831050728 | 87 | 326 | 0.0 | 8.0 | 0.00 | 0.00 | 0.00 | 51 | 1012.7 |
| 20260831045757 | 88 | 283 | 5.0 | 8.0 | 0.00 | 0.00 | 0.00 | 51 | 1013.2 |
| 20260831045227 | 88 | 207 | 1.0 | 6.0 | 0.00 | 0.00 | 0.00 | 50 | 1012.7 |
| 20260831043757 | 90 | 229 | 3.0 | 6.0 | 0.00 | 0.00 | 0.00 | 46 | 1012.6 |
| 20260831043226 | 90 | 248 | 2.0 | 7.0 | 0.00 | 0.00 | 0.00 | 45 | 1012.3 |
| 20260831042727 | 91 | 220 | 5.0 | 7.0 | 0.00 | 0.00 | 0.00 | 43 | 1012.3 |
| 20260831042226 | 91 | 217 | 5.0 | 11.0 | 0.00 | 0.00 | 0.00 | 42 | 1012.1 |
| 20260831041726 | 91 | 221 | 2.0 | 12.0 | 0.00 | 0.00 | 0.00 | 42 | 1012.1 |
| 20260831041256 | 92 | 229 | 2.0 | 12.0 | 0.00 | 0.00 | 0.00 | 41 | 1012.1 |
| 20260831040726 | 93 | 219 | 4.0 | 9.0 | 0.00 | 0.00 | 0.00 | 40 | 1012.2 |
| 20260831040226 | 96 | 209 | 4.0 | 8.0 | 0.00 | 0.00 | 0.00 | 36 | 1012.2 |
| 20260831035756 | 96 | 317 | 0.0 | 0.0 | 0.00 | 0.00 | 0.00 | 35 | 1011.5 |
| 20260831035256 | 96 | 318 | 0.0 | 0.0 | 0.00 | 0.00 | 0.00 | 35 | 1011.2 |
| 20260831034755 | 96 | 318 | 0.0 | 0.0 | 0.00 | 0.00 | 0.00 | 35 | 1011.1 |
| 20260831034255 | 96 | 318 | 0.0 | 0.0 | 0.00 | 0.00 | 0.00 | 34 | 1011.0 |
| 20260831033255 | 96 | 318 | 0.0 | 0.0 | 0.00 | 0.00 | 0.00 | 34 | 1011.1 |
| 20260831032725 | 96 | 318 | 0.0 | 0.0 | 0.00 | 0.00 | 0.00 | 34 | 1011.1 |
| 20260831032225 | 97 | 318 | 0.0 | 0.0 | 0.00 | 0.00 | 0.00 | 34 | 1011.1 |
| 20260831031724 | 97 | 318 | 0.0 | 0.0 | 0.00 | 0.00 | 0.00 | 34 | 1011.0 |
| 20260831031255 | 97 | 318 | 0.0 | 1.0 | 0.00 | 0.00 | 0.00 | 33 | 1010.8 |
| 20260831030754 | 97 | 317 | 0.0 | 2.0 | 0.00 | 0.00 | 0.00 | 33 | 1010.8 |
| 20260831030254 | 97 | 321 | 1.0 | 2.0 | 0.00 | 0.00 | 0.00 | 33 | 1010.7 |
| 20260831025754 | 97 | 335 | 0.0 | 2.0 | 0.00 | 0.00 | 0.00 | 33 | 1010.6 |
| 20260831025254 | 97 | 277 | 0.0 | 1.0 | 0.00 | 0.00 | 0.00 | 33 | 1010.5 |
| 20260831024754 | 97 | 328 | 0.0 | 1.0 | 0.00 | 0.00 | 0.00 | 33 | 1010.5 |
| 20260831024253 | 97 | 278 | 0.0 | 1.0 | 0.00 | 0.00 | 0.00 | 33 | 1010.4 |
| 20260831023753 | 97 | 278 | 0.0 | 2.0 | 0.00 | 0.00 | 0.00 | 33 | 1010.3 |
| 20260831023254 | 97 | 278 | 0.0 | 3.0 | 0.00 | 0.00 | 0.00 | 32 | 1010.3 |
| 20260831022753 | 98 | 282 | 0.0 | 3.0 | 0.00 | 0.00 | 0.00 | 32 | 1010.2 |
| 20260831022253 | 97 | 273 | 0.0 | 1.0 | 0.00 | 0.00 | 0.00 | 32 | 1010.0 |
| 20260831021753 | 97 | 251 | 0.0 | 0.0 | 0.00 | 0.00 | 0.00 | 32 | 1009.9 |
| 20260831021252 | 98 | 251 | 0.0 | 1.0 | 0.00 | 0.00 | 0.00 | 32 | 1009.9 |
| 20260831020752 | 98 | 251 | 0.0 | 1.0 | 0.00 | 0.00 | 0.00 | 31 | 1009.9 |
| 20260831020253 | 98 | 251 | 0.0 | 1.0 | 0.00 | 0.00 | 0.00 | 31 | 1009.9 |
| 20260831015752 | 99 | 267 | 0.0 | 1.0 | 0.00 | 0.00 | 0.00 | 31 | 1009.8 |
| 20260831014752 | 99 | 234 | 0.0 | 1.0 | 0.00 | 0.00 | 0.00 | 30 | 1009.5 |
| 20260831014252 | 100 | 279 | 0.0 | 2.0 | 0.00 | 0.00 | 0.00 | 30 | 1009.3 |
| 20260831013751 | 100 | 241 | 0.0 | 2.0 | 0.00 | 0.00 | 0.00 | 29 | 1009.3 |
| 20260831013251 | 101 | 240 | 0.0 | 1.0 | 0.00 | 0.00 | 0.00 | 29 | 1009.3 |
| 20260831011751 | 102 | 281 | 0.0 | 3.0 | 0.00 | 0.00 | 0.00 | 28 | 1009.3 |
| 20260831011251 | 102 | 248 | 1.0 | 5.0 | 0.00 | 0.00 | 0.00 | 28 | 1009.5 |
| 20260831010751 | 102 | 229 | 0.0 | 5.0 | 0.00 | 0.00 | 0.00 | 28 | 1009.4 |
| 20260831010250 | 102 | 261 | 0.0 | 5.0 | 0.00 | 0.00 | 0.00 | 28 | 1009.5 |
| 20260831005751 | 102 | 201 | 2.0 | 5.0 | 0.00 | 0.00 | 0.00 | 28 | 1009.5 |
| 20260831005250 | 102 | 180 | 1.0 | 5.0 | 0.00 | 0.00 | 0.00 | 28 | 1009.4 |
| 20260831004750 | 102 | 290 | 0.0 | 5.0 | 0.00 | 0.00 | 0.00 | 28 | 1009.3 |
| 20260831004250 | 103 | 271 | 0.0 | 4.0 | 0.00 | 0.00 | 0.00 | 27 | 1009.4 |
| 20260831003750 | 103 | 309 | 3.0 | 5.0 | 0.00 | 0.00 | 0.00 | 27 | 1009.4 |
| 20260831002749 | 103 | 271 | 0.0 | 6.0 | 0.00 | 0.00 | 0.00 | 27 | 1009.4 |
| 20260831002250 | 104 | 236 | 1.0 | 6.0 | 0.00 | 0.00 | 0.00 | 27 | 1009.5 |
| 20260831001749 | 104 | 191 | 2.0 | 6.0 | 0.00 | 0.00 | 0.00 | 27 | 1009.4 |
| 20260831001249 | 104 | 167 | 2.0 | 6.0 | 0.00 | 0.00 | 0.00 | 27 | 1009.5 |
| 20260831000249 | 104 | 279 | 1.0 | 4.0 | 0.00 | 0.00 | 0.00 | 27 | 1009.5 |